Location: Newark
(43.6583°N, 1.6617°E)
Time: 18:51:47
(UTC+00:00)

Tiros 1 - Pass Details

Date: 26 August 2019
Orbit: 630 x 664 km, 48.4° (Epoch: 22 September)

Event Time Altitude Azimuth Distance (km) Brightness Sun altitude
Exits shadow 02:46:30 31° 307° (NW) 1,109 8.2 -23.3°
Maximum altitude 02:48:33 61° 16° (NNE) 724 7.5 -23.0°
Drops below altitude 10° 02:53:11 10° 97° (E) 2,034 10.2 -22.4°
Sets 02:55:34 0° 101° (E) 2,948 11.1 -22.1°
